TimeEDT,TemperatureF,Dew PointF,Humidity,Sea Level PressureIn,VisibilityMPH,Wind Direction,Wind SpeedMPH,Gust SpeedMPH,PrecipitationIn,Events,Conditions,WindDirDegrees,DateUTC
12:15 AM,44.6,42.8,93,30.18,5.0,Calm,Calm,-,N/A,,Clear,0,2012-10-23 04:15:00
12:35 AM,44.6,42.8,93,30.17,5.0,Calm,Calm,-,N/A,,Clear,0,2012-10-23 04:35:00
1:15 AM,44.6,42.8,93,30.18,7.0,Calm,Calm,-,N/A,,Clear,0,2012-10-23 05:15:00
1:35 AM,44.6,42.8,93,30.17,10.0,Calm,Calm,-,N/A,,Clear,0,2012-10-23 05:35:00
2:35 AM,42.8,41.0,93,30.17,7.0,Calm,Calm,-,N/A,,Clear,0,2012-10-23 06:35:00
2:55 AM,44.6,42.8,93,30.17,7.0,Calm,Calm,-,N/A,,Clear,0,2012-10-23 06:55:00
3:35 AM,44.6,42.8,93,30.16,7.0,Calm,Calm,-,N/A,,Clear,0,2012-10-23 07:35:00
3:55 AM,44.6,42.8,93,30.16,10.0,Calm,Calm,-,N/A,,Clear,0,2012-10-23 07:55:00
4:15 AM,44.6,42.8,93,30.16,7.0,Calm,Calm,-,N/A,,Clear,0,2012-10-23 08:15:00
4:35 AM,42.8,41.0,93,30.16,7.0,Calm,Calm,-,N/A,,Clear,0,2012-10-23 08:35:00
4:55 AM,42.8,41.0,93,30.16,7.0,Calm,Calm,-,N/A,,Clear,0,2012-10-23 08:55:00
5:15 AM,41.0,39.2,93,30.16,7.0,Calm,Calm,-,N/A,,Clear,0,2012-10-23 09:15:00
5:55 AM,41.0,37.4,87,30.16,7.0,Calm,Calm,-,N/A,,Clear,0,2012-10-23 09:55:00
6:15 AM,42.8,41.0,93,30.17,7.0,Calm,Calm,-,N/A,,Clear,0,2012-10-23 10:15:00
6:35 AM,41.0,39.2,93,30.17,7.0,Calm,Calm,-,N/A,,Clear,0,2012-10-23 10:35:00
6:55 AM,39.2,37.4,93,30.18,7.0,Calm,Calm,-,N/A,,Clear,0,2012-10-23 10:55:00
7:35 AM,41.0,37.4,87,30.18,7.0,Calm,Calm,-,N/A,,Clear,0,2012-10-23 11:35:00
7:55 AM,39.2,37.4,93,30.19,10.0,Calm,Calm,-,N/A,,Clear,0,2012-10-23 11:55:00
8:35 AM,44.6,42.8,93,30.19,10.0,Calm,Calm,-,N/A,,Clear,0,2012-10-23 12:35:00
9:15 AM,51.8,50.0,94,30.19,10.0,Calm,Calm,-,N/A,,Clear,0,2012-10-23 13:15:00
9:35 AM,55.4,50.0,82,30.19,10.0,Calm,Calm,-,N/A,,Clear,0,2012-10-23 13:35:00
11:15 AM,69.8,51.8,53,30.19,10.0,Calm,Calm,-,N/A,,Clear,0,2012-10-23 15:15:00
11:55 AM,69.8,50.0,49,30.18,10.0,Calm,Calm,-,N/A,,Clear,0,2012-10-23 15:55:00
12:15 PM,71.6,51.8,50,30.17,10.0,South,3.5,-,N/A,,Clear,170,2012-10-23 16:15:00
12:35 PM,71.6,51.8,50,30.17,10.0,Calm,Calm,-,N/A,,Clear,0,2012-10-23 16:35:00
12:55 PM,71.6,50.0,46,30.16,10.0,South,5.8,-,N/A,,Clear,170,2012-10-23 16:55:00
1:15 PM,73.4,46.4,38,30.15,10.0,SSE,5.8,-,N/A,,Clear,160,2012-10-23 17:15:00
1:35 PM,73.4,48.2,41,30.14,10.0,South,3.5,-,N/A,,Clear,180,2012-10-23 17:35:00
1:55 PM,73.4,44.6,36,30.14,10.0,SSW,3.5,-,N/A,,Clear,200,2012-10-23 17:55:00
2:35 PM,73.4,44.6,36,30.12,10.0,South,4.6,-,N/A,,Clear,180,2012-10-23 18:35:00
2:55 PM,73.4,44.6,36,30.12,10.0,South,3.5,-,N/A,,Clear,190,2012-10-23 18:55:00
3:15 PM,75.2,46.4,36,30.11,10.0,Calm,Calm,-,N/A,,Clear,0,2012-10-23 19:15:00
3:35 PM,73.4,44.6,36,30.11,10.0,Calm,Calm,-,N/A,,Clear,0,2012-10-23 19:35:00
3:55 PM,73.4,46.4,38,30.11,10.0,Calm,Calm,-,N/A,,Clear,0,2012-10-23 19:55:00
4:15 PM,73.4,50.0,44,30.11,10.0,Calm,Calm,-,N/A,,Clear,0,2012-10-23 20:15:00
4:55 PM,73.4,50.0,44,30.11,10.0,South,3.5,-,N/A,,Clear,180,2012-10-23 20:55:00
5:15 PM,71.6,53.6,53,30.11,10.0,Calm,Calm,-,N/A,,Clear,0,2012-10-23 21:15:00
5:35 PM,69.8,53.6,56,30.11,10.0,Calm,Calm,-,N/A,,Clear,0,2012-10-23 21:35:00
5:55 PM,69.8,55.4,60,30.11,10.0,Calm,Calm,-,N/A,,Clear,0,2012-10-23 21:55:00
6:15 PM,64.4,55.4,73,30.11,10.0,Calm,Calm,-,N/A,,Clear,0,2012-10-23 22:15:00
6:35 PM,64.4,59.0,83,30.12,10.0,Calm,Calm,-,N/A,,Clear,0,2012-10-23 22:35:00
6:55 PM,60.8,55.4,82,30.12,10.0,Calm,Calm,-,N/A,,Clear,0,2012-10-23 22:55:00
7:15 PM,57.2,53.6,88,30.12,10.0,Calm,Calm,-,N/A,,Clear,0,2012-10-23 23:15:00
7:35 PM,57.2,53.6,88,30.12,10.0,Calm,Calm,-,N/A,,Clear,0,2012-10-23 23:35:00
7:55 PM,57.2,53.6,88,30.12,10.0,Calm,Calm,-,N/A,,Clear,0,2012-10-23 23:55:00
8:15 PM,53.6,51.8,94,30.12,10.0,Calm,Calm,-,N/A,,Clear,0,2012-10-24 00:15:00
8:35 PM,55.4,51.8,88,30.12,10.0,Calm,Calm,-,N/A,,Clear,0,2012-10-24 00:35:00
8:55 PM,53.6,51.8,94,30.12,10.0,Calm,Calm,-,N/A,,Clear,0,2012-10-24 00:55:00
9:15 PM,53.6,51.8,94,30.13,10.0,Calm,Calm,-,N/A,,Clear,0,2012-10-24 01:15:00
9:55 PM,53.6,50.0,88,30.14,10.0,Calm,Calm,-,N/A,,Clear,0,2012-10-24 01:55:00
10:35 PM,51.8,48.2,88,30.14,2.0,SSE,3.5,-,N/A,,Clear,160,2012-10-24 02:35:00
10:55 PM,50.0,46.4,87,30.14,5.0,South,4.6,-,N/A,,Clear,170,2012-10-24 02:55:00
11:15 PM,51.8,50.0,94,30.14,10.0,Calm,Calm,-,N/A,,Clear,0,2012-10-24 03:15:00
11:35 PM,51.8,50.0,94,30.15,10.0,Calm,Calm,-,N/A,,Clear,0,2012-10-24 03:35:00
11:55 PM,53.6,50.0,88,30.14,10.0,Calm,Calm,-,N/A,,Clear,0,2012-10-24 03:55:00